Regional Weather Roundup
Issued by NWS

Home | Current Version | Previous Version | Text Only | Print | Product List | Glossary Off
Versions: 1 2 3 4 5 6 7 8 9 10 11 12 13 14 15 16 17 18 19 20 21 22 23 24 25 26 27 28 29 30 31 32 33 34 35 36 37 38 39 40 41 42 43 44 45 46 47 48 49 50

731
ASUS44 KJAN 222110
RWRMS

MISSISSIPPI HOURLY WEATHER ROUNDUP
NATIONAL WEATHER SERVICE JACKSON MS
400 PM CDT TUE APR 22 2014

NOTE: "FAIR: INDICATES FEW OR NO CLOUDS BELOW 12,000 FEET WITH NO
SIGNIFICANT WEATHER AND/OR OBSTRUCTIONS TO VISIBILITY.

MSZ001>002-007>008-010>013-018>021-025>028-034>036-222200-
NORTHWEST MISSISSIPPI

CITY           SKY/WX    TMP DP  RH WIND       PRES   REMARKS
CLARKSDALE       N/A     77  61  57 N9G18     29.92F
CLEVELAND      FAIR      76  64  67 N10       29.91F
GREENWOOD      MOSUNNY   78  62  57 VRB7      29.89F
GREENVILLE     MOSUNNY   78  62  57 N9        29.91F
GRENADA        MOCLDY    77  59  53 NW10      29.88F
OLIVE BRANCH   MOSUNNY   73  57  56 N12       29.92F
OXFORD         FAIR      75  55  50 NW9       29.91S
TUNICA         PTCLDY    73  59  60 N13       29.93S
$$

MSZ003>006-009-014>017-022>024-029>033-037>039-222200-
NORTHEAST MISSISSIPPI

CITY           SKY/WX    TMP DP  RH WIND       PRES   REMARKS
BELMONT        FAIR      74  62  64 W7        29.87F
COLUMBUS AFB   MOSUNNY   77  59  53 VRB6      29.87F
CORINTH        FAIR      77  57  50 N7        29.87F
GOLDN TRIANGLE PTSUNNY   75  63  64 SW3       29.91F
STARKVILLE     MOCLDY    73  61  64 CALM      29.88F
TUPELO         PTSUNNY   76  58  53 N7        29.87F
$$

MSZ040-058-222200-
CENTRAL MISSISSIPPI

CITY           SKY/WX    TMP DP  RH WIND       PRES   REMARKS
JACKSON INTL   PTSUNNY   76  62  62 N7        29.90F
JACKSON HAWKNS PTSUNNY   77  60  55 N8        29.91F
MERIDIAN KEY   CLOUDY    66  63  90 CALM      29.91S
MERIDIAN NAS   LGT RAIN  66  63  88 W3        29.91F FOG
RAYMOND        FAIR      77  72  83 N6        29.91F
VICKSBURG      PTSUNNY   78  62  57 N10       29.92F
$$

MSZ059>079-222200-
SOUTH MISSISSIPPI

CITY           SKY/WX    TMP DP  RH WIND       PRES   REMARKS
BROOKHAVEN     MOCLDY    72  64  78 NW7       29.93F
HATTIESBURG    CLOUDY    74  65  73 N5        29.89F
MCCOMB         PTSUNNY   77  61  57 N13       29.91F
NATCHEZ        CLOUDY    75  63  64 NW8       29.93F
PINE BELT      PTSUNNY   73  63  68 NW5       29.90F
$$

MSZ080>082-222200-
COASTAL MISSISSIPPI

CITY           SKY/WX    TMP DP  RH WIND       PRES   REMARKS
BAY ST LOUIS   PTSUNNY   79  63  57 W8        29.89F
BILOXI         SUNNY     76  66  72 SW12      29.88F
PASCAGOULA     PTSUNNY   75  64  68 SW6       29.88F
GULFPORT       MOSUNNY   78  64  61 VRB5      29.88F
$$



USA.gov is the U.S. government's official web portal to all federal, state and local government web resources and services.